Weather History for Cross City, FL

Change the Weather History Date:

Sunday, March 17, 2013

  Actual Average Record
Temperature  
Mean Temperature 58 °F 62 °F  
Max Temperature 74 °F 76 °F 87 °F (2002)
Min Temperature 42 °F 49 °F 37 °F (1999)
Degree Days  
Heating Degree Days 7 4  
Month to date heating degree days 184 91  
Since 1 July heating degree days 994 1211  
Cooling Degree Days 0 1  
Month to date cooling degree days 2 17  
Year to date cooling degree days 98 44  
Growing Degree Days 8 (Base 50)    
Moisture  
Dew Point 51 °F    
Average Humidity 77    
Maximum Humidity 100    
Minimum Humidity 46    
Precipitation  
Precipitation 0.09 in 0.13 in 3.36 in (2014)
Month to date precipitation 0.25 2.27  
Year to date precipitation 3.76 9.58  
Sea Level Pressure  
Sea Level Pressure 30.07 in    
Wind  
Wind Speed 4 mph (SSW)    
Max Wind Speed 16 mph    
Max Gust Speed 21 mph    
T = Trace of Precipitation, MM = Missing Value Source: NWS Daily Summary

Daily Weather History Graph

Daily Weather History Graph

Search for Another Location

Airport:

Trip Planner

Search our weather history database for the weather conditions in past years. The results will help you decide how hot, cold, wet, or windy it might be!

Date:

Astronomy

Mar. 17, 2013 Rise Set
Actual Time 7:39 AM EDT 7:42 PM EDT
Civil Twilight 7:15 AM EDT 8:05 PM EDT
Nautical Twilight 6:48 AM EDT 8:33 PM EDT
Astronomical Twilight 6:20 AM EDT 9:01 PM EDT
Moon 11:15 AM EDT (3/17) 12:25 AM EDT (3/17)
Length of Visible Light 12h 50m
Length of Day
12h 02m
Waxing Crescent, 31% of the Moon is Illuminated
Mar 17
Waxing Crescent
Mar 19
First Quarter
Mar 27
Full
Apr 3
Last Quarter
Apr 10
New

Hourly Weather History & Observations

Time (EDT) Temp. Dew Point Humidity Pressure Visibility Wind Dir Wind Speed Gust Speed Precip Events Conditions
12:53 AM 48.0 °F 45.0 °F 89% 30.11 in - Calm Calm - N/A   Unknown
1:53 AM 46.0 °F 43.0 °F 89% 30.09 in - Calm Calm - N/A   Unknown
2:53 AM 44.1 °F 41.0 °F 89% 30.08 in - Calm Calm - N/A   Unknown
3:53 AM 43.0 °F 39.9 °F 89% 30.06 in - Calm Calm - N/A   Unknown
4:53 AM 43.0 °F 41.0 °F 93% 30.05 in - Calm Calm - N/A   Unknown
5:53 AM 42.1 °F 39.9 °F 92% 30.06 in - Calm Calm - N/A   Unknown
6:53 AM 44.1 °F 42.1 °F 93% 30.08 in - Calm Calm - N/A   Unknown
7:53 AM 45.0 °F 43.0 °F 93% 30.09 in - Calm Calm - N/A   Unknown
8:53 AM 52.0 °F 51.1 °F 97% 30.10 in - Calm Calm - N/A   Unknown
9:53 AM 57.9 °F 57.0 °F 97% 30.12 in - South 5.8 mph - N/A   Unknown
10:53 AM 66.9 °F 54.0 °F 63% 30.13 in - SSW 10.4 mph - N/A   Unknown
11:53 AM 69.1 °F 53.1 °F 57% 30.12 in - South 10.4 mph - N/A   Unknown
12:53 PM 69.1 °F 54.0 °F 58% 30.11 in - South 10.4 mph - N/A   Unknown
1:53 PM 71.1 °F 53.1 °F 53% 30.09 in - SSW 12.7 mph 19.6 mph N/A   Unknown
2:53 PM 73.9 °F 52.0 °F 46% 30.04 in - South 9.2 mph 17.3 mph N/A   Unknown
3:53 PM 72.0 °F 52.0 °F 49% 30.03 in - SSW 10.4 mph - N/A   Unknown
4:53 PM 70.0 °F 53.1 °F 55% 30.03 in - South 6.9 mph - N/A   Unknown
5:53 PM 70.0 °F 54.0 °F 57% 30.03 in - SSW 9.2 mph - N/A   Unknown
6:53 PM 68.0 °F 55.0 °F 63% 30.02 in - SSW 9.2 mph - N/A   Unknown
7:53 PM 66.0 °F 57.0 °F 73% 30.02 in - South 3.5 mph - N/A   Unknown
8:53 PM 63.0 °F 59.0 °F 87% 30.04 in - Calm Calm - N/A   Unknown
9:53 PM 63.0 °F 60.1 °F 90% 30.05 in - Calm Calm - 0.03 in   Unknown
10:53 PM 62.1 °F 60.1 °F 93% 30.05 in - Calm Calm - 0.04 in   Unknown
11:53 PM 61.0 °F 60.1 °F 97% 30.05 in - Calm Calm - 0.01 in   Unknown